Temp
60 60 60 61 61 61 61 61 60 60 59 59 60 60 60 61 60 59 58 57 57 57 57 58 58 59 53 51 57 65 66 66 64 65 63 62 59 56 52 54 54 54 59 63 62 61 58
59 60 60 59 60 60 61 60 59 59 59 59 59 59 59 60 60 59 58 57 57 57 57 57 58 58 50 50 68 68 65 65 65 62 61 63 62 63 57 56 54 61 57 57 61 58 61
60 59 59 59 59 59 59 59 59 58 58 59 59 59 59 59 59 58 58 57 57 56 57 57 58 55 49 57 66 64 67 64 66 65 62 65 65 60 59 56 61 62 55 57 58 59 57
60 59 59 58 58 58 58 58 58 58 58 58 59 59 58 58 58 57 57 56 56 56 57 57 57 50 49 66 62 65 64 66 68 67 65 68 66 61 57 59 57 55 54 48 55 57 57
59 59 59 58 58 58 58 58 58 58 58 58 58 58 57 57 57 57 56 56 56 57 57 57 49 47 51 67 63 69 69 68 68 66 66 74 64 56 57 50 47 48 41 46 51 60 58
58 59 59 59 58 58 58 58 58 58 57 57 57 57 57 57 57 56 55 56 56 55 56 58 56 47 58 60 67 69 66 69 65 64 62 60 54 50 48 46 40 43 44 41 45 54 54
58 58 57 59 58 58 58 58 58 57 57 57 57 57 57 57 57 56 54 52 51 50 51 54 54 54 59 66 68 66 68 68 64 62 51 53 49 44 48 50 50 50 48 45 48 55 54
57 57 57 57 59 58 58 58 57 57 57 57 57 57 57 57 57 56 52 50 54 54 48 56 57 57 62 64 59 64 70 62 58 51 52 51 45 52 54 54 51 52 48 46 52 55 53
56 56 56 57 56 59 58 58 57 57 57 57 57 56 56 57 55 52 50 53 61 57 45 54 57 56 59 63 58 59 66 61 54 51 50 47 52 57 54 51 51 48 46 46 50 52 50
55 55 55 56 56 56 58 57 57 57 56 56 56 56 55 55 52 52 49 58 59 56 40 49 53 57 61 62 57 66 68 63 54 52 51 49 55 54 51 50 52 45 53 51 49 47 41
55 55 55 55 56 55 55 57 57 56 56 56 56 56 55 55 51 49 57 59 58 54 30 54 54 67 61 60 61 61 68 63 54 53 52 49 50 50 49 52 55 51 54 51 49 45 43
54 55 55 55 55 55 54 55 56 56 56 56 56 55 55 53 53 53 58 58 55 42 30 50 58 55 55 57 57 59 62 64 60 53 51 51 54 54 54 56 55 56 52 49 46 43 36
54 54 54 54 54 54 54 54 56 56 55 55 55 55 54 57 52 54 58 54 42 32 52 49 51 55 52 51 55 56 54 52 49 43 42 48 51 54 56 51 53 51 45 34 34 32 34
54 54 54 54 54 54 54 54 54 55 55 55 55 54 54 57 57 53 55 46 33 42 45 55 54 52 49 52 52 53 51 47 49 48 42 42 39 51 55 54 49 47 46 34 31 29 35
54 54 54 54 54 54 54 54 53 54 54 54 53 48 50 55 56 55 48 37 40 44 52 51 52 47 47 51 51 51 48 47 51 52 45 40 43 51 54 54 53 48 43 48 36 34 29
54 53 53 53 53 53 53 54 53 54 54 53 47 45 47 57 56 51 42 41 47 53 55 54 46 49 43 46 48 47 46 52 52 54 54 49 41 49 53 54 54 50 53 41 38 32 30
53 53 53 53 53 52 53 53 53 53 54 53 46 41 49 56 54 45 38 40 49 56 56 51 47 46 48 46 48 45 48 52 55 52 53 49 47 44 49 48 48 46 44 43 43 36 32
52 52 52 53 52 52 52 53 53 52 53 50 44 34 51 54 43 44 41 43 50 53 56 52 50 49 48 48 46 47 48 54 56 54 50 50 45 38 46 51 52 49 48 45 34 36 33
52 52 52 52 52 52 52 52 52 52 53 47 40 42 52 53 37 38 46 47 48 50 50 50 49 51 51 47 44 48 48 55 54 54 50 50 41 35 41 45 48 46 48 46 42 36 34
52 52 51 52 51 52 52 52 53 51 53 47 41 34 43 45 49 42 42 43 42 52 50 51 49 50 49 47 49 46 49 52 53 54 51 53 43 41 38 42 46 41 46 45 43 32 35
51 51 51 51 51 51 52 52 52 51 52 46 41 38 44 36 39 42 44 44 41 42 51 51 46 48 47 44 45 44 48 49 51 50 51 51 42 43 44 46 47 46 46 45 43 43 39
51 51 50 50 50 51 51 52 51 51 52 43 38 38 42 39 43 41 42 42 41 45 46 45 45 48 48 43 48 45 48 47 48 48 48 48 41 41 38 44 44 42 46 44 44 43 43
51 51 50 50 50 50 51 51 51 51 51 41 44 44 43 42 41 38 40 43 43 47 50 51 50 49 44 49 55 55 54 53 51 46 45 45 40 36 36 38 40 34 41 45 45 45 47
50 51 50 50 50 50 51 51 51 51 51 45 45 44 41 35 41 41 43 45 45 47 45 52 52 48 52 58 55 52 50 49 50 47 48 41 39 34 29 31 26 44 46 47 45 46 47
50 51 50 50 49 50 50 50 50 50 52 45 44 43 40 30 41 43 45 44 47 49 48 50 53 57 57 54 46 41 38 39 41 45 44 44 37 32 30 29 37 42 45 45 44 44 47
50 50 50 49 49 49 50 50 50 51 51 46 45 44 42 39 39 47 45 47 42 43 43 46 55 56 54 44 37 35 33 39 38 41 45 43 39 36 27 27 25 40 47 50 49 37 47
50 49 49 48 49 50 49 50 51 50 51 45 44 45 41 39 45 47 44 43 48 45 40 44 48 47 50 32 32 32 34 43 35 36 34 32 31 30 22 25 33 44 48 50 37 39 47
48 48 48 48 49 49 49 50 50 50 50 45 43 46 41 41 43 48 47 45 47 48 39 43 45 45 38 37 36 34 30 37 36 40 38 37 32 27 26 24 30 48 47 43 45 43 46
47 47 48 48 49 49 49 50 50 49 50 47 40 46 47 41 43 47 47 49 48 50 49 45 45 45 47 40 36 34 32 29 36 33 42 38 41 36 38 38 46 46 47 48 47 46 46
MSLP
1020.53 1020.42 1020.14 1020.12 1020.18 1020.21 1020.03 1019.75 1019.67 1019.63 1019.43 1019.20 1019.05 1019.05 1019.05 1018.99 1018.79 1018.47 1018.35 1018.19 1017.84 1017.68 1017.48 1017.10 1016.90 1016.46 1015.75 1014.90 1012.65 1011.05 1011.01 1011.00 1011.44 1011.68 1011.70 1011.63 1011.68 1011.80 1011.92 1011.97 1011.87 1011.81 1011.08 1010.75 1010.35 1010.72 1010.97
1020.00 1020.08 1019.99 1019.76 1019.79 1019.83 1019.87 1019.70 1019.57 1019.46 1019.36 1019.07 1018.79 1018.70 1018.70 1018.74 1018.61 1018.39 1018.16 1017.97 1017.69 1017.53 1017.31 1017.06 1016.87 1016.64 1016.10 1014.00 1010.79 1011.00 1011.28 1011.29 1011.36 1011.63 1011.65 1011.54 1011.33 1011.29 1011.47 1011.53 1011.55 1010.96 1010.98 1010.61 1010.49 1010.92 1011.18
1019.63 1019.50 1019.61 1019.39 1019.36 1019.41 1019.43 1019.43 1019.42 1019.23 1019.21 1018.96 1018.68 1018.45 1018.43 1018.45 1018.41 1018.26 1018.07 1017.75 1017.47 1017.25 1017.04 1016.92 1016.81 1016.95 1015.89 1012.30 1010.92 1011.20 1011.20 1011.11 1011.07 1011.38 1011.54 1011.28 1011.04 1011.17 1011.05 1011.20 1011.16 1010.87 1011.05 1011.00 1010.76 1010.93 1011.33
1018.75 1018.95 1019.01 1019.09 1018.85 1018.82 1018.99 1019.12 1019.01 1018.99 1018.77 1018.90 1018.54 1018.28 1018.20 1018.20 1018.17 1017.98 1017.73 1017.70 1017.21 1016.93 1016.72 1016.76 1016.75 1017.06 1014.51 1011.05 1010.85 1010.99 1010.99 1010.74 1010.77 1010.96 1011.15 1010.91 1010.90 1011.23 1011.23 1011.15 1011.32 1011.50 1011.38 1011.45 1010.91 1011.05 1011.22
1017.92 1018.05 1018.18 1018.50 1018.51 1018.44 1018.44 1018.65 1018.67 1018.57 1018.69 1018.48 1018.56 1018.27 1018.03 1017.96 1017.86 1017.74 1017.61 1017.24 1016.89 1016.48 1016.55 1016.63 1016.81 1016.76 1013.34 1010.70 1010.59 1009.90 1010.13 1010.22 1010.34 1010.79 1010.89 1010.88 1010.79 1011.54 1011.47 1011.69 1012.16 1012.30 1012.01 1011.59 1011.14 1010.93 1010.96
1017.42 1017.27 1017.27 1017.61 1017.84 1018.00 1018.03 1018.11 1018.08 1018.28 1018.30 1018.19 1018.25 1018.12 1018.00 1017.67 1017.63 1017.70 1017.41 1016.74 1016.45 1016.39 1016.39 1016.57 1016.44 1016.52 1012.47 1010.73 1010.01 1009.68 1009.68 1009.80 1010.02 1010.54 1011.02 1011.22 1011.56 1012.26 1012.50 1012.52 1012.70 1012.45 1012.01 1011.65 1011.28 1010.93 1011.28
1016.62 1016.64 1016.57 1016.66 1016.99 1017.28 1017.34 1017.64 1017.65 1017.72 1017.78 1018.01 1017.78 1017.86 1017.66 1017.61 1017.47 1017.62 1017.52 1016.69 1016.78 1016.39 1015.97 1014.67 1014.11 1013.48 1011.74 1010.55 1009.90 1009.52 1009.29 1009.70 1010.09 1010.66 1011.49 1011.80 1012.37 1012.65 1012.46 1012.24 1012.06 1011.93 1011.87 1011.70 1011.24 1010.90 1011.18
1015.83 1015.87 1015.95 1015.93 1015.84 1016.37 1016.72 1016.96 1017.21 1017.23 1017.28 1017.53 1017.73 1017.39 1017.59 1017.40 1017.36 1017.53 1017.81 1017.14 1016.15 1016.58 1015.37 1013.19 1012.75 1012.30 1011.26 1010.89 1010.68 1009.40 1009.08 1009.77 1010.37 1011.02 1011.77 1012.19 1012.46 1011.71 1011.97 1011.43 1011.95 1011.78 1011.45 1011.67 1011.24 1011.29 1011.57
1014.63 1014.84 1015.08 1015.19 1015.29 1015.14 1015.80 1016.23 1016.45 1016.75 1016.90 1017.05 1017.10 1017.65 1017.33 1017.38 1017.28 1017.78 1017.67 1016.51 1015.80 1015.85 1015.75 1012.36 1011.33 1010.78 1010.26 1010.43 1010.13 1009.26 1009.09 1009.49 1010.32 1011.25 1011.80 1012.20 1011.71 1011.25 1011.54 1011.54 1011.65 1011.65 1011.36 1011.44 1011.65 1011.23 1011.43
1013.23 1013.64 1013.93 1014.25 1014.51 1014.63 1014.72 1015.22 1015.85 1016.09 1016.36 1016.49 1016.79 1017.16 1017.48 1017.48 1017.64 1017.28 1016.92 1015.88 1015.62 1016.02 1015.23 1011.61 1010.33 1008.81 1009.03 1009.26 1009.30 1008.45 1008.53 1009.08 1010.24 1010.85 1011.86 1011.98 1011.35 1011.12 1011.15 1011.17 1011.18 1011.26 1011.16 1011.20 1011.55 1011.92 1012.40
1011.83 1012.16 1012.60 1012.91 1013.49 1013.85 1014.07 1014.40 1015.05 1015.44 1015.84 1015.93 1016.31 1016.42 1017.22 1017.32 1016.68 1016.75 1016.14 1015.86 1015.51 1015.78 1014.01 1009.91 1008.78 1007.61 1008.05 1008.27 1008.02 1008.00 1008.00 1008.63 1009.86 1010.75 1011.53 1011.45 1011.27 1010.99 1011.09 1010.68 1010.82 1010.94 1011.06 1011.44 1011.92 1012.37 1012.76
1010.11 1010.60 1011.14 1011.64 1012.16 1012.71 1013.31 1013.63 1013.98 1014.66 1015.25 1015.50 1015.86 1016.03 1016.82 1016.98 1016.79 1015.60 1015.70 1015.66 1015.82 1015.42 1012.27 1009.11 1007.96 1007.76 1008.28 1007.94 1007.80 1007.97 1008.15 1008.58 1009.64 1010.67 1011.06 1011.10 1010.86 1010.71 1010.30 1010.38 1010.47 1010.75 1011.34 1012.24 1012.91 1013.40 1013.67
1008.33 1008.80 1009.46 1010.26 1010.87 1011.52 1012.12 1012.69 1012.99 1013.76 1014.51 1015.04 1015.44 1015.59 1016.38 1016.29 1016.04 1015.50 1015.61 1015.68 1015.71 1013.72 1010.47 1008.64 1007.97 1007.79 1007.95 1007.95 1008.06 1008.03 1008.62 1009.27 1010.00 1010.98 1011.26 1011.13 1010.79 1010.26 1009.99 1010.26 1010.68 1010.90 1012.08 1013.58 1014.46 1014.73 1014.40
1006.33 1007.02 1007.81 1008.56 1009.46 1010.24 1010.97 1011.57 1012.22 1012.63 1013.81 1014.44 1014.84 1015.25 1015.49 1015.74 1015.68 1015.79 1015.78 1015.69 1014.02 1011.46 1009.80 1008.20 1007.75 1007.88 1008.02 1007.91 1008.28 1008.45 1009.05 1009.65 1010.09 1010.53 1011.51 1011.32 1010.95 1010.24 1009.96 1009.90 1010.34 1011.12 1011.94 1013.66 1014.73 1015.54 1014.91
1004.39 1005.09 1005.96 1006.83 1007.91 1008.88 1009.68 1010.53 1011.43 1011.83 1013.05 1013.87 1014.61 1014.99 1015.07 1014.94 1015.48 1015.81 1015.74 1014.17 1011.53 1010.88 1009.27 1008.31 1007.84 1007.97 1008.10 1007.79 1007.89 1008.72 1009.30 1009.71 1009.68 1010.11 1010.84 1011.17 1010.73 1010.01 1009.90 1009.82 1010.33 1011.11 1011.93 1012.77 1014.47 1015.89 1015.70
1002.22 1003.09 1004.00 1005.02 1006.15 1007.47 1008.38 1009.45 1010.16 1011.10 1012.13 1013.37 1014.19 1014.53 1013.96 1014.16 1015.02 1015.48 1015.17 1012.15 1010.74 1009.70 1008.84 1008.23 1008.06 1007.50 1007.80 1007.81 1008.19 1008.53 1009.13 1008.89 1009.16 1009.32 1009.37 1010.42 1010.67 1010.34 1010.05 1009.99 1010.09 1010.45 1011.42 1012.91 1014.34 1015.59 1015.69
1000.05 1000.90 1001.96 1003.14 1004.22 1005.79 1007.07 1008.23 1009.25 1010.21 1011.14 1012.82 1013.96 1013.77 1011.96 1013.40 1014.58 1014.54 1012.74 1011.47 1010.44 1009.30 1008.85 1008.70 1008.26 1007.89 1007.58 1007.62 1007.78 1008.39 1008.66 1008.46 1008.41 1009.12 1009.49 1010.03 1010.49 1010.94 1010.65 1010.18 1010.16 1010.94 1011.46 1012.81 1014.02 1015.10 1015.41
997.94 998.78 999.91 1001.08 1002.39 1004.10 1005.67 1006.99 1008.17 1009.14 1010.18 1012.22 1012.61 1012.38 1011.31 1012.14 1013.07 1012.34 1011.13 1011.11 1010.35 1009.59 1008.99 1008.91 1008.55 1008.22 1007.73 1007.45 1007.58 1008.01 1008.06 1007.64 1007.46 1008.21 1009.66 1009.86 1010.25 1011.00 1010.46 1010.08 1009.81 1010.35 1011.15 1012.18 1013.96 1015.39 1015.62
995.94 996.75 997.75 999.07 1000.48 1002.29 1004.14 1005.61 1006.83 1008.25 1008.75 1011.01 1011.18 1010.87 1010.96 1010.70 1010.75 1010.12 1010.53 1010.47 1010.45 1009.47 1009.08 1009.04 1008.70 1008.08 1007.70 1007.43 1007.72 1007.44 1007.40 1007.00 1007.37 1008.05 1008.68 1009.66 1010.40 1011.12 1010.82 1010.72 1010.32 1010.50 1011.08 1011.91 1012.98 1014.13 1014.97
993.72 994.85 995.97 997.21 998.72 1000.49 1002.57 1004.20 1005.52 1007.26 1008.00 1009.38 1010.37 1009.97 1010.00 1010.20 1008.46 1009.25 1009.70 1009.56 1009.80 1009.23 1009.20 1008.92 1008.72 1008.32 1008.06 1007.59 1007.28 1007.19 1007.23 1007.22 1007.41 1007.75 1008.08 1008.76 1009.92 1010.54 1010.61 1010.27 1010.06 1010.49 1010.69 1011.52 1012.25 1013.82 1013.92
991.80 993.01 994.23 995.32 996.89 998.85 1001.01 1002.84 1004.48 1006.17 1007.18 1008.41 1008.82 1007.72 1006.70 1007.32 1007.92 1007.95 1008.63 1008.58 1009.11 1008.79 1008.84 1008.79 1008.76 1008.58 1008.15 1008.10 1007.52 1007.36 1007.20 1007.41 1007.78 1008.02 1008.51 1008.87 1010.00 1010.37 1010.16 1009.95 1010.02 1010.10 1010.40 1011.11 1011.79 1011.87 1012.37
989.90 991.39 992.65 993.69 995.37 997.45 999.78 1001.51 1003.22 1004.99 1006.62 1007.92 1007.14 1006.89 1006.51 1006.17 1007.34 1008.32 1008.06 1007.57 1007.69 1008.31 1008.11 1008.32 1008.40 1008.18 1008.22 1008.16 1007.46 1007.47 1007.66 1007.60 1007.55 1008.38 1008.75 1009.36 1010.12 1010.53 1010.94 1010.67 1010.45 1010.38 1010.27 1010.64 1010.94 1011.22 1011.43
988.42 989.97 991.40 992.49 994.20 996.45 998.57 1000.61 1002.24 1003.85 1005.95 1006.09 1006.55 1006.25 1006.00 1005.93 1006.57 1007.44 1005.48 1006.43 1007.03 1008.09 1007.81 1007.63 1007.70 1008.15 1007.98 1007.42 1007.20 1007.27 1007.53 1007.61 1007.77 1008.41 1008.50 1009.52 1010.47 1011.55 1012.20 1011.84 1011.34 1011.15 1010.15 1009.98 1010.04 1010.00 1010.18
987.40 988.99 990.43 991.56 993.40 995.66 997.71 999.50 1001.26 1002.86 1003.98 1004.55 1005.88 1005.84 1005.71 1005.66 1005.65 1004.28 1005.89 1006.52 1006.58 1006.52 1007.00 1007.24 1007.45 1007.77 1007.71 1007.38 1007.36 1007.56 1007.75 1007.72 1007.70 1008.10 1008.94 1009.58 1010.76 1012.02 1013.26 1013.10 1012.08 1009.85 1009.27 1009.24 1009.53 1009.53 1009.69
986.84 988.26 989.71 991.18 993.08 995.19 997.25 998.98 1000.73 1002.53 1003.74 1004.82 1005.80 1005.74 1005.50 1005.45 1005.06 1005.04 1005.42 1006.00 1006.87 1006.93 1006.97 1007.02 1007.01 1007.31 1007.60 1007.97 1008.46 1008.50 1008.93 1008.68 1008.78 1008.64 1009.08 1009.37 1010.77 1013.03 1013.79 1013.76 1011.86 1010.16 1009.53 1009.26 1009.38 1009.20 1009.26
986.58 987.98 989.55 991.14 993.14 995.23 997.02 998.82 1000.81 1002.28 1003.58 1005.00 1005.41 1006.10 1006.30 1005.71 1004.47 1004.85 1005.00 1005.28 1005.85 1006.35 1007.29 1007.02 1007.50 1007.40 1008.14 1008.90 1009.87 1009.90 1009.63 1009.10 1009.44 1009.32 1009.50 1010.04 1010.61 1012.12 1013.99 1013.68 1012.06 1009.83 1008.41 1008.23 1008.65 1009.02 1009.06
986.63 988.12 989.74 991.61 993.56 995.36 997.15 999.01 1000.58 1001.96 1003.32 1004.61 1005.25 1006.48 1007.33 1006.11 1004.78 1004.20 1003.99 1004.48 1005.36 1006.14 1006.55 1007.02 1007.35 1007.91 1008.22 1009.40 1010.12 1010.22 1010.08 1009.42 1009.47 1009.37 1010.00 1011.24 1012.20 1013.21 1013.90 1013.09 1011.10 1008.82 1008.32 1008.54 1009.17 1008.70 1008.44
987.35 988.97 990.77 992.47 994.03 995.78 997.49 999.06 1000.49 1001.77 1003.04 1004.45 1005.58 1006.71 1007.63 1006.55 1005.20 1004.53 1004.28 1004.14 1004.73 1005.03 1005.70 1006.51 1007.78 1007.56 1008.60 1009.13 1009.85 1010.02 1010.27 1009.36 1009.34 1008.64 1008.90 1009.94 1011.69 1012.91 1013.07 1012.27 1010.46 1008.17 1008.82 1008.83 1007.94 1007.98 1008.49
989.08 990.54 991.94 993.35 994.84 996.48 998.04 999.48 1000.86 1002.09 1003.32 1004.79 1006.03 1006.78 1007.68 1007.86 1006.07 1005.32 1004.87 1004.48 1004.26 1004.27 1005.21 1005.42 1005.35 1005.67 1006.44 1007.59 1008.75 1009.27 1009.90 1010.22 1008.88 1009.00 1008.60 1008.95 1008.70 1009.98 1010.38 1009.31 1008.15 1007.87 1007.71 1007.45 1007.68 1008.26 1008.74
Wind_Speed
18 18 16 14 17 17 17 14 13 12 12 12 11 11 11 11 10 9 9 10 9 11 13 13 15 15 5 4 10 1 8 11 7 4 4 4 3 3 1 3 1 3 4 4 5 7 0
18 18 17 15 15 14 17 16 14 13 13 12 12 11 11 11 10 10 10 10 9 9 11 12 12 12 2 3 1 5 8 6 6 3 3 3 4 5 2 3 2 4 3 3 3 0 2
21 19 18 16 15 15 14 14 13 13 13 13 13 11 11 11 10 10 11 11 10 8 9 10 9 3 1 14 3 4 1 3 6 4 3 4 2 1 1 4 3 2 2 3 1 1 1
21 20 20 18 16 15 14 14 13 13 12 13 13 11 11 10 10 10 10 13 11 10 8 7 4 2 9 4 2 5 4 4 6 6 2 5 1 3 2 2 5 4 4 2 1 3 2
22 21 20 20 17 15 15 14 13 11 12 11 13 13 12 10 9 9 12 13 14 12 5 1 1 2 11 7 3 4 8 4 6 3 4 3 3 1 4 3 4 6 2 2 2 5 4
26 24 22 21 19 16 17 16 14 13 12 11 12 12 13 10 8 9 12 12 7 1 2 3 2 4 7 0 4 1 4 3 2 2 1 3 5 3 4 4 3 1 2 3 2 4 3
28 26 25 23 21 19 18 18 15 14 12 13 11 12 11 11 8 6 7 4 4 1 2 8 4 5 5 8 3 3 4 6 3 7 2 2 5 3 6 6 2 2 3 2 3 3 5
26 26 25 25 22 21 21 18 16 14 12 12 11 10 11 10 5 2 1 2 1 1 9 10 15 9 6 3 4 5 7 5 4 5 2 6 5 6 4 7 3 5 3 2 4 1 6
27 26 27 25 25 23 21 19 16 14 14 11 9 12 10 9 1 1 4 6 3 3 4 8 7 6 7 10 8 7 8 5 4 5 5 6 5 2 3 0 4 3 1 1 3 5 2
30 28 28 26 26 24 22 20 18 15 13 12 9 9 10 5 2 3 5 2 5 4 2 8 6 8 7 8 4 9 8 7 1 10 8 5 4 3 1 3 5 2 4 2 2 3 2
32 31 29 27 25 22 23 22 19 15 14 14 10 7 8 12 3 3 1 5 2 1 4 3 4 2 6 10 6 7 6 5 8 7 6 7 3 4 5 7 6 7 3 2 1 1 2
34 33 31 30 28 25 22 25 21 18 15 14 11 9 6 5 2 5 5 5 1 2 9 5 6 6 6 4 3 4 5 6 4 5 1 5 2 4 7 1 4 3 3 6 4 3 2
35 34 33 31 29 27 24 22 24 20 17 14 12 10 8 4 3 1 2 1 4 6 3 4 5 6 5 6 5 4 7 6 6 4 3 1 4 3 3 2 3 4 6 3 4 4 6
36 36 35 32 30 28 27 23 26 22 18 12 12 10 7 7 2 2 2 4 10 6 7 4 1 5 8 6 6 5 7 6 2 5 3 6 6 6 4 6 8 4 7 6 4 3 4
37 37 36 34 32 30 27 26 25 24 20 14 6 3 4 6 5 1 3 11 8 5 5 3 1 5 4 5 6 5 8 7 9 8 7 5 5 1 1 1 3 5 3 4 8 3 3
38 37 37 36 34 31 29 27 24 26 23 17 4 4 8 9 10 3 4 16 9 5 2 3 6 5 9 7 6 9 9 6 6 11 6 8 2 1 2 1 2 1 6 3 3 3 3
38 38 38 37 36 33 30 28 26 29 26 20 5 5 6 12 8 4 14 11 19 11 3 3 3 4 6 8 9 6 10 4 8 5 4 6 5 4 1 5 7 2 1 5 5 4 5
36 38 38 38 37 34 32 30 28 29 29 20 6 7 10 14 10 9 17 7 9 21 2 3 2 4 4 5 6 8 10 10 10 11 9 6 6 6 9 2 3 4 7 6 6 3 1
35 37 38 38 39 36 34 32 30 32 33 13 6 5 11 13 15 16 10 17 7 7 8 5 5 3 2 0 3 7 7 5 9 9 10 8 1 1 9 5 3 4 5 4 6 4 7
36 36 37 38 40 38 36 33 33 32 33 13 5 9 7 11 15 18 22 17 21 6 8 4 2 2 0 3 4 3 6 3 7 8 8 8 4 9 9 9 5 4 5 6 6 5 5
35 35 32 38 42 40 37 35 35 34 35 12 6 7 6 15 23 17 19 15 19 17 14 9 3 6 3 5 3 4 2 3 2 6 5 7 8 7 4 4 5 4 5 7 7 6 8
34 34 28 37 42 39 38 37 37 37 35 11 7 5 3 6 15 22 17 23 25 21 10 13 7 9 8 5 7 3 2 2 6 5 7 3 4 3 3 3 3 3 6 6 4 2 5
33 34 31 35 41 38 37 37 40 39 31 7 5 3 4 10 20 18 26 20 20 17 18 7 19 12 4 15 12 9 7 5 4 2 9 8 8 4 4 3 4 7 8 9 7 5 8
31 31 30 37 41 38 36 41 42 42 35 5 2 2 4 6 13 22 21 19 23 23 10 19 10 5 6 1 1 3 4 1 6 3 2 8 8 3 4 3 2 6 1 3 8 6 6
30 30 31 38 38 37 39 39 38 37 36 6 1 2 4 3 11 9 19 22 13 12 16 11 20 8 3 3 4 1 4 2 1 5 4 1 7 5 6 4 5 3 5 8 9 9 7
29 29 36 38 36 37 40 39 37 33 33 12 5 4 2 1 11 10 14 15 18 14 8 9 7 4 3 4 4 6 6 6 5 3 4 5 7 7 3 6 8 9 4 6 4 7 7
27 34 37 36 35 37 36 36 33 29 31 11 6 5 2 1 3 12 15 13 9 11 2 6 8 4 6 3 2 4 5 4 7 10 7 4 4 6 3 3 9 8 4 4 6 11 8
33 33 32 33 35 34 33 29 27 25 29 11 2 8 4 3 6 5 2 7 9 16 10 4 6 7 2 7 5 5 4 7 2 5 9 9 8 4 4 4 8 8 4 10 9 1 6
28 28 30 30 32 33 30 26 24 25 26 14 3 8 3 6 4 2 6 7 5 4 11 6 5 6 8 5 1 4 2 1 5 5 1 3 8 9 11 10 4 6 5 4 5 6 7
Wind_Direction
289 293 293 283 285 288 290 295 298 298 297 278 267 272 275 280 287 295 301 304 313 324 326 326 326 330 342 11 254 38 69 117 114 122 167 166 132 151 237 254 208 219 265 278 230 181 169
280 281 286 288 280 279 285 288 294 294 294 293 270 265 270 276 283 292 296 300 305 311 320 322 325 328 316 288 279 89 125 119 126 156 206 182 204 203 232 235 173 257 358 277 127 303 328
275 274 276 276 283 272 271 273 279 289 291 293 289 269 270 275 282 292 299 297 297 297 309 315 322 322 269 237 75 70 300 180 174 176 192 231 240 190 202 303 260 298 41 9 162 218 183
266 270 273 273 270 278 267 267 271 280 283 293 293 287 272 272 280 290 296 295 291 284 294 298 326 293 252 241 269 278 167 257 203 200 215 263 203 251 249 314 15 40 60 284 223 223 253
262 262 264 267 268 269 277 263 266 271 285 291 293 291 282 270 277 290 295 295 292 286 254 238 30 289 267 316 262 250 171 219 147 171 227 292 108 187 16 48 24 8 196 283 328 216 104
277 268 255 258 258 260 267 272 260 261 268 278 288 287 287 276 276 294 303 296 294 40 125 165 246 329 273 261 292 246 208 197 170 120 157 49 54 45 23 71 200 212 27 310 237 244 73
270 274 274 248 252 254 255 263 268 251 258 272 276 283 283 283 273 306 338 351 319 295 200 207 183 251 276 295 264 249 180 132 112 64 145 22 62 242 234 178 228 186 130 254 274 289 169
259 267 271 274 242 246 254 252 259 258 248 261 273 281 283 282 270 345 11 281 251 164 307 235 243 252 264 84 294 281 134 136 154 180 242 35 256 230 249 152 178 248 152 267 288 278 189
252 253 259 261 270 239 241 246 246 258 249 250 270 288 285 280 155 159 243 234 59 41 264 279 204 204 196 149 208 250 150 137 150 138 196 159 239 159 204 244 166 251 147 146 247 324 40
247 246 251 252 254 262 235 237 239 242 250 244 246 272 281 179 196 159 251 232 286 174 298 265 233 255 156 159 228 211 189 138 129 190 155 228 263 217 191 235 147 244 216 146 9 42 266
244 241 240 246 246 248 250 229 230 236 241 232 225 237 264 195 139 170 36 326 120 206 305 231 193 144 163 164 152 218 177 71 172 168 124 242 213 191 216 222 164 219 211 53 327 136 33
242 238 236 237 241 239 243 238 214 225 234 229 219 217 238 215 251 236 308 326 212 82 243 298 157 158 153 200 149 106 135 71 127 113 86 230 210 189 193 286 196 145 96 45 42 74 46
242 236 232 231 233 234 233 237 220 209 217 222 229 216 182 200 247 135 307 307 206 208 318 234 193 159 179 168 170 130 146 158 154 114 222 290 226 240 161 130 360 93 71 339 4 19 216
239 235 229 225 226 227 226 227 226 195 205 211 220 209 215 220 255 6 184 220 219 209 240 317 217 111 182 141 213 151 131 171 238 97 117 171 307 188 197 182 181 183 144 157 200 187 257
238 233 227 221 220 222 222 223 222 195 189 187 220 213 212 201 204 150 219 219 204 219 232 219 32 132 220 206 141 135 172 190 181 171 167 141 265 285 197 166 157 177 150 169 101 15 60
236 232 226 219 213 215 216 218 205 194 176 178 177 188 221 169 161 171 215 227 218 224 333 12 216 185 180 185 145 162 169 198 203 185 163 207 137 255 264 160 243 154 158 86 22 158 227
236 229 224 216 206 207 209 210 203 195 169 174 184 191 198 155 151 196 210 215 220 269 79 346 315 305 221 169 170 167 192 239 194 166 142 139 134 251 192 204 191 92 150 62 117 130 163
233 227 222 213 202 200 203 205 201 190 165 170 201 195 169 146 189 199 220 191 215 236 132 283 298 240 240 183 159 179 190 198 167 148 163 203 149 195 212 318 152 173 196 151 128 218 122
231 224 217 210 198 193 197 198 192 190 168 160 208 178 176 166 192 207 203 209 251 224 213 207 242 211 342 2 189 181 194 223 150 145 162 183 220 66 334 2 4 199 194 143 110 91 190
225 218 216 206 195 187 191 192 190 187 173 156 196 176 164 195 217 198 196 202 207 231 249 169 271 280 276 309 228 237 199 204 170 186 124 101 143 166 209 214 159 187 191 174 137 122 182
220 215 211 202 190 184 185 187 184 181 176 160 195 207 190 179 207 203 194 187 194 214 205 177 253 224 166 217 319 204 174 116 119 161 138 140 198 182 224 207 177 209 178 177 191 196 169
211 208 200 203 184 180 182 185 181 174 181 180 170 198 187 192 197 199 193 205 195 205 172 207 197 205 198 220 208 116 66 222 194 197 152 185 208 167 138 94 62 232 255 200 221 169 256
203 201 193 202 176 175 179 186 181 174 188 175 197 275 182 211 182 184 209 195 197 189 226 188 211 219 226 228 245 260 224 216 187 227 171 153 138 113 224 32 46 325 219 211 212 196 179
194 197 186 185 168 171 178 181 177 180 186 133 216 235 194 195 188 204 181 201 191 207 190 209 226 157 223 52 123 55 34 246 143 76 253 141 114 93 162 53 254 246 312 230 216 241 235
187 186 180 172 165 169 173 169 171 181 185 154 163 230 185 201 204 204 193 193 206 213 222 219 219 233 312 8 346 33 326 359 26 46 16 15 122 103 136 188 295 292 213 175 177 261 205
176 175 171 161 162 168 173 166 177 184 184 184 206 77 346 184 226 185 194 183 193 208 227 224 231 233 103 124 147 216 216 186 204 98 73 68 54 115 142 149 208 231 241 152 110 275 180
166 162 155 154 166 165 163 173 171 172 175 163 195 169 329 295 256 193 193 186 167 191 154 156 166 204 146 159 148 178 231 195 178 162 165 68 30 146 126 191 284 244 217 141 135 239 171
147 143 149 158 158 160 164 173 176 167 166 160 138 164 177 285 295 325 359 163 168 199 182 157 119 217 56 179 159 197 175 218 184 171 170 154 140 176 82 72 282 173 106 169 216 290 160
127 139 149 154 158 162 168 168 164 164 164 149 140 160 177 258 310 271 247 222 177 184 172 194 181 169 179 158 162 100 157 275 174 206 83 201 178 178 178 207 215 201 210 223 170 174 166